KC2ASA Weather Reports


Display with metric or nautical units.
time (UTC)temp
F
wind
direction
speed
MPH
gust
MPH
rain 1hr
in
rain 24hr
in
rain mn
in
humidity
%
barometer
mb
20260906213025 72 50 0.0 1.0 0.00 0.00 0.00 63 1015.3
20260906211522 72 41 1.0 5.0 0.00 0.00 0.00 59 1015.2
20260906210021 73 33 1.0 5.0 0.00 0.00 0.00 60 1015.1
20260906204522 73 179 0.0 3.0 0.00 0.00 0.00 63 1014.9
20260906203119 73 134 1.0 3.0 0.00 0.00 0.00 60 1015.0
20260906201520 73 45 1.0 7.0 0.00 0.00 0.00 60 1014.9
20260906200018 72 52 1.0 4.0 0.00 0.00 0.00 62 1014.9
20260906194517 72 38 0.0 4.0 0.00 0.00 0.00 65 1014.8
20260906193016 73 318 0.0 5.0 0.00 0.00 0.00 64 1014.8
20260906191516 72 64 0.0 4.0 0.00 0.00 0.00 65 1014.8
20260906190015 73 61 0.0 3.0 0.00 0.00 0.00 64 1014.9
20260906184514 73 16 4.0 7.0 0.00 0.00 0.00 63 1014.9
20260906183014 73 67 2.0 5.0 0.00 0.00 0.00 64 1015.0
20260906181517 73 37 1.0 6.0 0.00 0.00 0.00 65 1015.1
20260906180012 73 64 1.0 4.0 0.00 0.00 0.00 65 1015.0
20260906174512 72 65 0.0 2.0 0.00 0.00 0.00 69 1015.1
20260906173011 74 84 1.0 9.0 0.00 0.00 0.00 65 1015.2
20260906171510 74 50 0.0 5.0 0.00 0.00 0.00 65 1015.2
20260906170015 73 27 1.0 5.0 0.00 0.00 0.00 70 1015.4
20260906164508 73 55 3.0 7.0 0.00 0.00 0.00 67 1015.4
20260906163005 73 38 3.0 6.0 0.00 0.00 0.00 69 1015.5
20260906161502 72 60 3.0 7.0 0.00 0.00 0.00 71 1015.6
20260906160110 72 49 2.0 7.0 0.00 0.00 0.00 74 1015.7
20260906154601 70 9 1.0 5.0 0.00 0.00 0.00 79 1015.8
20260906153103 69 77 2.0 4.0 0.00 0.00 0.00 79 1015.8
20260906151556 69 63 2.0 5.0 0.00 0.00 0.00 79 1015.8
20260906150059 69 43 1.0 4.0 0.00 0.00 0.00 79 1015.8
20260906144554 71 33 1.0 4.0 0.00 0.00 0.00 76 1015.7
20260906143051 70 153 1.0 5.0 0.00 0.00 0.00 78 1015.6
20260906141549 69 53 1.0 6.0 0.00 0.00 0.00 80 1015.6
20260906140046 70 74 1.0 4.0 0.00 0.00 0.00 79 1015.4
20260906134553 68 73 1.0 3.0 0.00 0.00 0.00 83 1015.3
20260906133106 67 36 0.0 3.0 0.00 0.00 0.00 83 1015.4
20260906131540 68 30 1.0 2.0 0.00 0.00 0.00 85 1015.4
20260906130038 67 61 0.0 0.0 0.00 0.00 0.00 88 1015.2
20260906124533 66 61 0.0 0.0 0.00 0.00 0.00 91 1015.2
20260906123032 66 61 0.0 0.0 0.00 0.00 0.00 97 1015.2
20260906121528 62 61 0.0 0.0 0.00 0.00 0.00 97 1015.3
20260906120022 59 61 0.0 0.0 0.00 0.00 0.00 97 1015.0
20260906114519 0 0.0 0.0 0.00 0.00 0.00 1014.9
20260906113014 0 0.0 0.0 0.00 0.00 0.00 1014.8
20260906111509 0 0.0 0.0 0.00 0.00 0.00 1014.6
20260906110007 0 0.0 0.0 0.00 0.00 0.00 1014.4
20260906104505 0 0.0 0.0 0.00 0.00 0.00 1014.3
20260906103057 0 0.0 0.0 0.00 0.00 0.00 1014.0
20260906101554 0 0.0 0.0 0.00 0.00 0.00 1013.9
20260906100049 0 0.0 0.0 0.00 0.00 0.00 1013.9
20260906094544 0 0.0 0.0 0.00 0.00 0.00 1013.5
20260906093039 0 0.0 0.0 0.00 0.00 0.00 1013.4
20260906091536 0 0.0 0.0 0.00 0.00 0.00 1013.2
20260906090031 0 0.0 0.0 0.00 0.00 0.00 1013.2
20260906084527 0 0.0 0.0 0.00 0.00 0.00 1013.2
20260906083022 0 0.0 0.0 0.00 0.00 0.00 1013.0
20260906081517 0 0.0 0.0 0.00 0.00 0.00 1012.8
20260906080015 0 0.0 0.0 0.00 0.00 0.00 1012.8
20260906074509 0 0.0 0.0 0.00 0.00 0.00 1012.9
20260906073008 0 0.0 0.0 0.00 0.00 0.00 1012.9
20260906071600 0 0.0 0.0 0.00 0.00 0.00 1012.8
20260906070057 0 0.0 0.0 0.00 0.00 0.00 1012.8
20260906064552 0 0.0 0.0 0.00 0.00 0.00 1012.8
20260906063047 0 0.0 0.0 0.00 0.00 0.00 1012.8
20260906061543 0 0.0 0.0 0.00 0.00 0.00 1012.9
20260906060039 0 0.0 0.0 0.00 0.00 0.00 1013.1
20260906054535 0 0.0 0.0 0.00 0.00 0.00 1013.1
20260906053031 0 0.0 0.0 0.00 0.00 0.00 1013.0
20260906051532 0 0.0 0.0 0.00 0.00 0.00 1013.2
20260906050025 0 0.0 0.0 0.00 0.00 0.00 1013.2
20260906044521 0 0.0 0.0 0.00 0.00 0.00 1013.1
20260906043014 0 0.0 0.0 0.00 0.00 0.00 1013.1
20260906041509 0 0.0 0.0 0.00 0.00 0.00 1012.9
20260906040008 0 0.0 0.0 0.00 0.00 0.00 1013.0
20260906034600 0 0.0 0.0 0.00 0.00 0.00 1012.8
20260906033108 62 61 0.0 0.0 0.00 0.00 0.00 93 1012.9
20260906031559 62 60 0.0 0.0 0.00 0.00 0.00 93 1012.7
20260906030056 63 60 0.0 0.0 0.00 0.00 0.00 93 1012.6
20260906024607 63 61 0.0 0.0 0.00 0.00 0.00 93 1012.7
20260906023057 63 60 0.0 0.0 0.00 0.00 0.00 93 1012.7
20260906021555 63 61 0.0 0.0 0.00 0.00 0.00 93 1012.6
20260906020055 64 60 0.0 0.0 0.00 0.00 0.00 93 1012.5
20260906014557 64 61 0.0 0.0 0.00 0.00 0.00 93 1012.5
20260906013050 64 60 0.0 0.0 0.00 0.00 0.00 93 1012.3
20260906011548 64 60 0.0 0.0 0.00 0.00 0.00 93 1012.2
20260906010047 64 60 0.0 0.0 0.00 0.00 0.00 92 1012.1
20260906004547 65 61 0.0 0.0 0.00 0.00 0.00 92 1011.9
20260906003046 65 60 0.0 0.0 0.00 0.00 0.00 91 1011.7
20260906001546 66 61 0.0 0.0 0.00 0.00 0.00 90 1011.5
20260906000045 67 61 0.0 0.0 0.00 0.00 0.00 89 1011.4
20260905234552 68 61 0.0 0.0 0.00 0.00 0.00 88 1011.1
20260905233044 69 60 0.0 0.0 0.00 0.00 0.00 87 1011.2
20260905231547 70 61 0.0 0.0 0.00 0.00 0.00 85 1011.2
20260905230101 71 61 0.0 0.0 0.00 0.00 0.00 84 1011.2
20260905224543 72 61 0.0 0.0 0.00 0.00 0.00 82 1011.0
20260905223042 72 61 0.0 0.0 0.00 0.00 0.00 78 1010.8
20260905221541 73 61 0.0 1.0 0.00 0.00 0.00 74 1010.7
20260905220041 74 27 0.0 0.0 0.00 0.00 0.00 76 1010.6
20260905214541 74 27 0.0 1.0 0.00 0.00 0.00 72 1010.6